• In Österreich
  • Länderverzeichnis
  • Für 7 Tage
  • Wassertemperatur
  • Satellitenkarten
  • Wetterkarte
  • News
  • Widgets
  • user-avatar
    Anmelden

    Stündliche Wetter Koudougou

    Heute, 23 Juni, Samstag

    Zeit Temperatur Niederschläge Wind Luftdruck Luftfeuchtigkeit
    00:00 +33°C° 0 mm 4 m/S 733 mmHg 50%
    01:00 +33°C° 0 mm 5 m/S 733 mmHg 54%
    02:00 +32°C° 0 mm 6 m/S 733 mmHg 57%
    03:00 +30°C° 0 mm 7 m/S 733 mmHg 60%
    04:00 +30°C° 0 mm 6 m/S 733 mmHg 63%
    05:00 +29°C° 0 mm 6 m/S 734 mmHg 67%
    06:00 +28°C° 0 mm 5 m/S 734 mmHg 71%
    07:00 +29°C° 0 mm 5 m/S 734 mmHg 67%
    08:00 +30°C° 0 mm 5 m/S 734 mmHg 64%
    09:00 +32°C° 0 mm 5 m/S 734 mmHg 61%
    10:00 +33°C° 0 mm 5 m/S 734 mmHg 55%
    11:00 +35°C° 0 mm 5 m/S 734 mmHg 50%
    12:00 +36°C° 0 mm 5 m/S 734 mmHg 44%
    13:00 +36°C° 0 mm 4 m/S 733 mmHg 43%
    14:00 +37°C° 0 mm 3 m/S 732 mmHg 41%
    15:00 +37°C° 0 mm 3 m/S 732 mmHg 40%
    16:00 +37°C° 0 mm 2 m/S 732 mmHg 40%
    17:00 +37°C° 0 mm 2 m/S 731 mmHg 41%
    18:00 +36°C° 0 mm 2 m/S 731 mmHg 41%
    19:00 +35°C° 0,8 mm 2 m/S 732 mmHg 45%
    20:00 +34°C° 0,8 mm 3 m/S 732 mmHg 50%
    21:00 +33°C° 0,8 mm 3 m/S 732 mmHg 54%
    22:00 +33°C° 0,5 mm 3 m/S 732 mmHg 56%
    23:00 +31°C° 0,5 mm 3 m/S 732 mmHg 58%

    Morgen, 24 Juni, Sonntag

    Zeit Temperatur Niederschläge Wind Luftdruck Luftfeuchtigkeit
    00:00 +31°C° 0,5 mm 3 m/S 732 mmHg 60%
    01:00 +30°C° 1 mm 3 m/S 732 mmHg 61%
    02:00 +30°C° 1 mm 4 m/S 731 mmHg 63%
    03:00 +30°C° 1 mm 4 m/S 731 mmHg 65%
    04:00 +29°C° 2 mm 5 m/S 731 mmHg 68%
    05:00 +29°C° 2 mm 5 m/S 731 mmHg 71%
    06:00 +28°C° 2 mm 6 m/S 731 mmHg 75%
    07:00 +28°C° 2,1 mm 6 m/S 732 mmHg 76%
    08:00 +28°C° 2,1 mm 6 m/S 733 mmHg 77%
    09:00 +27°C° 2,1 mm 6 m/S 733 mmHg 79%
    10:00 +27°C° 5,7 mm 5 m/S 733 mmHg 80%
    11:00 +27°C° 5,7 mm 5 m/S 733 mmHg 82%
    12:00 +27°C° 5,7 mm 4 m/S 734 mmHg 84%
    13:00 +28°C° 1,3 mm 4 m/S 733 mmHg 78%
    14:00 +29°C° 1,3 mm 4 m/S 732 mmHg 73%
    15:00 +30°C° 1,3 mm 4 m/S 731 mmHg 67%
    16:00 +30°C° 0 mm 3 m/S 731 mmHg 67%
    17:00 +30°C° 0 mm 3 m/S 731 mmHg 68%
    18:00 +29°C° 0 mm 2 m/S 731 mmHg 68%
    19:00 +29°C° 0 mm 2 m/S 732 mmHg 70%
    20:00 +29°C° 0 mm 2 m/S 732 mmHg 73%
    21:00 +28°C° 0 mm 2 m/S 733 mmHg 76%
    22:00 +28°C° 0 mm 3 m/S 733 mmHg 77%
    23:00 +27°C° 0 mm 3 m/S 733 mmHg 78%

    übermorgen, 25 Juni, Montag

    Zeit Temperatur Niederschläge Wind Luftdruck Luftfeuchtigkeit
    00:00 +27°C° 0 mm 3 m/S 733 mmHg 79%
    01:00 +27°C° 0 mm 3 m/S 733 mmHg 80%
    02:00 +27°C° 0 mm 3 m/S 732 mmHg 80%
    03:00 +26°C° 0 mm 3 m/S 732 mmHg 81%
    04:00 +26°C° 0 mm 3 m/S 732 mmHg 82%
    05:00 +26°C° 0 mm 3 m/S 733 mmHg 83%
    06:00 +26°C° 0 mm 3 m/S 733 mmHg 84%
    07:00 +27°C° 0 mm 4 m/S 733 mmHg 79%
    08:00 +28°C° 0 mm 5 m/S 734 mmHg 73%
    09:00 +29°C° 0 mm 5 m/S 734 mmHg 68%
    10:00 +32°C° 0 mm 5 m/S 734 mmHg 61%
    11:00 +33°C° 0 mm 4 m/S 734 mmHg 55%
    12:00 +34°C° 0 mm 4 m/S 734 mmHg 49%
    13:00 +35°C° 0 mm 4 m/S 733 mmHg 47%
    14:00 +35°C° 0 mm 4 m/S 733 mmHg 45%
    15:00 +36°C° 0 mm 4 m/S 732 mmHg 44%
    16:00 +35°C° 0 mm 4 m/S 732 mmHg 45%
    17:00 +35°C° 0 mm 3 m/S 732 mmHg 46%
    18:00 +35°C° 0 mm 3 m/S 732 mmHg 47%
    19:00 +34°C° 0 mm 3 m/S 733 mmHg 50%
    20:00 +33°C° 0 mm 3 m/S 733 mmHg 53%
    21:00 +31°C° 0 mm 3 m/S 734 mmHg 56%
    22:00 +31°C° 0 mm 3 m/S 734 mmHg 57%
    23:00 +30°C° 0 mm 3 m/S 734 mmHg 59%

    26 Juni, Dienstag

    Zeit Temperatur Niederschläge Wind Luftdruck Luftfeuchtigkeit
    00:00 +30°C° 0 mm 3 m/S 734 mmHg 61%
    01:00 +30°C° 0 mm 3 m/S 733 mmHg 62%
    02:00 +29°C° 0 mm 3 m/S 733 mmHg 63%
    03:00 +29°C° 0 mm 3 m/S 732 mmHg 65%
    04:00 +29°C° 0 mm 3 m/S 733 mmHg 66%
    05:00 +28°C° 0 mm 4 m/S 733 mmHg 67%
    06:00 +28°C° 0 mm 4 m/S 733 mmHg 69%
    07:00 +29°C° 0 mm 4 m/S 733 mmHg 65%
    08:00 +30°C° 0 mm 4 m/S 734 mmHg 61%
    09:00 +32°C° 0 mm 5 m/S 734 mmHg 58%
    10:00 +33°C° 0 mm 4 m/S 734 mmHg 53%
    11:00 +35°C° 0 mm 3 m/S 734 mmHg 48%
    12:00 +36°C° 0 mm 2 m/S 734 mmHg 43%
    13:00 +36°C° 0 mm 2 m/S 733 mmHg 42%
    14:00 +35°C° 0 mm 1 m/S 733 mmHg 40%
    15:00 +34°C° 0 mm 0 m/S 732 mmHg 39%
    16:00 +35°C° 0 mm 1 m/S 732 mmHg 40%
    17:00 +36°C° 0 mm 2 m/S 732 mmHg 42%
    18:00 +36°C° 0 mm 3 m/S 732 mmHg 43%
    19:00 +35°C° 0 mm 3 m/S 732 mmHg 47%
    20:00 +34°C° 0 mm 3 m/S 732 mmHg 51%
    21:00 +31°C° 0 mm 3 m/S 732 mmHg 55%
    22:00 +31°C° 0,9 mm 3 m/S 732 mmHg 58%
    23:00 +30°C° 0,9 mm 3 m/S 732 mmHg 62%

    27 Juni, Mittwoch

    Zeit Temperatur Niederschläge Wind Luftdruck Luftfeuchtigkeit
    00:00 +29°C° 0,9 mm 3 m/S 733 mmHg 65%
    01:00 +29°C° 0,3 mm 4 m/S 732 mmHg 66%
    02:00 +29°C° 0,3 mm 5 m/S 732 mmHg 66%
    03:00 +29°C° 0,3 mm 5 m/S 731 mmHg 67%
    04:00 +28°C° 0,2 mm 5 m/S 731 mmHg 68%
    05:00 +28°C° 0,2 mm 4 m/S 732 mmHg 70%
    06:00 +28°C° 0,2 mm 4 m/S 732 mmHg 71%
    07:00 +29°C° 0,1 mm 4 m/S 732 mmHg 69%
    08:00 +30°C° 0,1 mm 5 m/S 732 mmHg 67%
    09:00 +30°C° 0,1 mm 5 m/S 733 mmHg 65%
    10:00 +33°C° 0 mm 5 m/S 732 mmHg 59%
    11:00 +35°C° 0 mm 6 m/S 732 mmHg 53%
    12:00 +36°C° 0 mm 6 m/S 732 mmHg 47%
    13:00 +38°C° 0 mm 6 m/S 731 mmHg 44%
    14:00 +39°C° 0 mm 5 m/S 730 mmHg 42%
    15:00 +40°C° 0 mm 5 m/S 730 mmHg 39%
    16:00 +38°C° 0 mm 4 m/S 730 mmHg 40%
    17:00 +38°C° 0 mm 4 m/S 730 mmHg 42%
    18:00 +37°C° 0 mm 3 m/S 730 mmHg 43%
    19:00 +36°C° 0,3 mm 4 m/S 731 mmHg 46%
    20:00 +35°C° 0,3 mm 5 m/S 731 mmHg 50%
    21:00 +34°C° 0,3 mm 6 m/S 732 mmHg 53%
    22:00 +33°C° 0,1 mm 7 m/S 732 mmHg 57%
    23:00 +32°C° 0,1 mm 7 m/S 732 mmHg 62%

    28 Juni, Donnerstag

    Zeit Temperatur Niederschläge Wind Luftdruck Luftfeuchtigkeit
    00:00 +31°C° 0,1 mm 8 m/S 732 mmHg 66%
    01:00 +30°C° 0,4 mm 7 m/S 732 mmHg 68%
    02:00 +29°C° 0,4 mm 7 m/S 731 mmHg 70%
    03:00 +28°C° 0,4 mm 6 m/S 731 mmHg 71%
    04:00 +28°C° 0 mm 6 m/S 731 mmHg 72%
    05:00 +28°C° 0 mm 6 m/S 731 mmHg 73%
    06:00 +27°C° 0 mm 6 m/S 732 mmHg 74%
    07:00 +28°C° 0 mm 6 m/S 732 mmHg 71%
    08:00 +29°C° 0 mm 6 m/S 733 mmHg 67%
    09:00 +30°C° 0 mm 7 m/S 733 mmHg 63%
    10:00 +33°C° 0 mm 6 m/S 733 mmHg 57%
    11:00 +35°C° 0 mm 6 m/S 733 mmHg 51%
    12:00 +36°C° 0 mm 6 m/S 732 mmHg 45%
    13:00 +38°C° 0 mm 6 m/S 732 mmHg 43%
    14:00 +37°C° 0 mm 5 m/S 731 mmHg 41%
    15:00 +39°C° 0 mm 5 m/S 731 mmHg 39%
    16:00 +37°C° 0 mm 4 m/S 731 mmHg 41%
    17:00 +36°C° 0 mm 4 m/S 731 mmHg 44%
    18:00 +36°C° 0 mm 3 m/S 731 mmHg 46%
    19:00 +35°C° 0 mm 3 m/S 732 mmHg 48%
    20:00 +34°C° 0 mm 4 m/S 732 mmHg 51%
    21:00 +34°C° 0 mm 4 m/S 732 mmHg 54%
    22:00 +33°C° 0,1 mm 4 m/S 732 mmHg 58%
    23:00 +32°C° 0,1 mm 5 m/S 732 mmHg 62%
    Mehr zeigen